User: anonymous   Login
Location: Newark
(39.0622°N, 106.5590°E)
Time: 12:28:54
(UTC+00:00)
Language:

AO-92 - Orbit

View from above orbital plane
View from above orbital plane
View from above satellite
View from above satellite

Ground track
Ground track

The orbit data is extracted from the following two-line orbital elements,

1 43137U 18004AC  20048.67245948 +.00000774 +00000-0 +35006-4 0  9996
2 43137 097.4596 120.5909 0010733 116.3980 243.8360 15.23883562116656
Epoch (UTC): 17 February 2020 16:08:20
Eccentricity: 0.0010733
inclination: 97.4596°
perigee height: 487 km
apogee height: 501 km
right ascension of ascending node: 120.5909°
argument of perigee: 116.3980°
revolutions per day: 15.23883562
mean anomaly at epoch: 243.8360°
orbit number at epoch: 11665

The dashed part of the orbit path shows where the satellite is in the earth's shadow,  

DLR